User: anonymous   Login
Location: ??
(31.9467°N, 34.8903°E)
Time: 14:18:00
(UTC+00:00)
Language:

GPS 2-04 Rocket1 - Orbit

View from above orbital plane
View from above orbital plane
View from above satellite
View from above satellite

Ground track
Ground track

The orbit data is extracted from the following two-line orbital elements,

1 20303U 89085B   21019.57498591  .00000866  00000-0  28927-4 0  9991
2 20303  35.6423  91.9272 0093044 299.0852  60.0585 15.28444529701677
Epoch (UTC): 19 January 2021 13:47:58
Eccentricity: 0.0093044
inclination: 35.6423°
perigee height: 416 km
apogee height: 544 km
right ascension of ascending node: 91.9272°
argument of perigee: 299.0852°
revolutions per day: 15.28444529
mean anomaly at epoch: 60.0585°
orbit number at epoch: 70167

The dashed part of the orbit path shows where the satellite is in the earth's shadow,  

DLR